Regional Weather Roundup
Issued by NWS

Home | Current Version | Previous Version | Graphics & Text | Print | Product List | Glossary On
Versions: 1 2 3 4 5 6 7 8 9 10 11 12 13 14 15 16 17 18 19 20 21 22 23 24 25 26 27 28 29 30 31 32 33 34 35 36 37 38 39 40 41 42 43 44 45 46 47 48 49 50
000
ASUS43 KLSX 231007
RWRMO

WEATHER SUMMARY FOR MISSOURI
NATIONAL WEATHER SERVICE SPRINGFIELD MO
400 AM CST THU NOV 23 2017

NOTE: "FAIR" INDICATES FEW OR NO CLOUDS BELOW 12,000 FEET WITH NO
       SIGNIFICANT WEATHER AND/OR OBSTRUCTIONS TO VISIBILITY.
       CURRENT SKY AND/OR WEATHER CONDITIONS ARE NOT AVAILABLE FOR
       CHILLICOTHE AND FARMINGTON.

MOZ001>031-035>038-043-044-053-054-231100-
...NORTHERN AND WESTERN MISSOURI...

CITY           SKY/WX    TMP DP  RH WIND       PRES   REMARKS
KANSAS CTY INT CLEAR     35  21  56 SW10      30.05F WCI  27
KANSAS C DTWN  CLEAR     37  21  52 SW6       30.06F
LEE`S SUMMIT   CLEAR     35  22  58 SW10      30.07F WCI  27
ST JOSEPH      CLEAR     31  22  69 S5        30.04F WCI  26
CHILLICOTHE      N/A     33  22  63 S8        30.05F WCI  26
KIRKSVILLE     CLEAR     34  21  59 SW13      30.03F WCI  25

$$
MOZ066>068-077>081-088>096-101>105-231100-
...SOUTHWEST MISSOURI...

CITY           SKY/WX    TMP DP  RH WIND       PRES   REMARKS
SPRINGFIELD    CLOUDY    30  22  72 S5        30.15S WCI  25
JOPLIN         CLOUDY    32  26  78 S7        30.16F WCI  26
BRANSON        CLOUDY    36  18  48 CALM      30.17S

$$
MOZ032>034-039>042-045>050-055>058-069>072-231100-
...CENTRAL MISSOURI...

CITY           SKY/WX    TMP DP  RH WIND       PRES   REMARKS
COLUMBIA       PTCLDY    29  19  66 S8        30.11F WCI  21
JEFFERSON CITY MOCLDY    31  19  61 E5        30.15F WCI  26
ROLLA          CLOUDY    29  17  61 S9        30.14F WCI  20
SEDALIA        CLEAR     36  24  62 SW10      30.11F WCI  28
WHITEMAN AFB   CLEAR     31  22  69 S10       30.05F WCI  23
WARRENSBURG    CLEAR     32  23  69 S8        30.09F WCI  25
OSAGE BEACH    CLEAR     27  20  75 S5        30.15F WCI  22

$$
MOZ051-052-059>065-231100-
...EAST CENTRAL MISSOURI...

CITY           SKY/WX    TMP DP  RH WIND       PRES   REMARKS
ST LOUIS INTL  PTCLDY    33  21  61 S5        30.16F WCI  29
SPIRIT OF STL  MOCLDY    29  22  75 CALM      30.15F
ST CHARLES     PTCLDY    27  19  72 E5        30.16F WCI  22

$$
MOZ072>076-082>087-097>100-106>115-231100-
...SOUTH CENTRAL AND SOUTHEAST MISSOURI...

CITY           SKY/WX    TMP DP  RH WIND       PRES   REMARKS
CAPE GIRARDEAU CLOUDY    27  24  89 CALM      30.21F
FARMINGTON     CLOUDY    29  21  72 SE6       30.17F WCI  23
POPLAR BLUFF   CLOUDY    28  23  81 CALM      30.20F
WEST PLAINS    CLOUDY    26  18  71 CALM      30.17F

$$



USA.gov is the U.S. government's official web portal to all federal, state and local government web resources and services.